269  
ASUS42 KMHX 201222  
RWRMHX  
WEATHER ROUNDUP FOR EASTERN NORTH CAROLINA  
NATIONAL WEATHER SERVICE NEWPORT/MOREHEAD CITY NC  
800 AM EDT MON OCT 20 2014  
 
NOTE: "FAIR" INDICATES FEW OR NO CLOUDS BELOW 12,000 FEET  
WITH NO SIGNIFICANT WEATHER AND/OR S TO VISIBILITY
 
 
NCZ015>017-031-032-045>047-102-103-201300-  
NORTH COAST  
 
CITY SKY/WX TMP DP RH WIND PRES REMARKS
 
EDENTON PTCLDY 46 44 95 CALM 30.19R  
ELIZABETH CITY PTCLDY 43 40 89 SW5 30.18R  
KITTY HAWK MOSUNNY 56 46 71 W3 30.17R  
MANTEO PTCLDY 50 46 84 CALM 30.18R  
 

 
 
NCZ045>047-081-094-103-104-201300-  
CENTRAL COAST  
 
CITY SKY/WX TMP DP RH WIND PRES REMARKS
 
FRISCO PTCLDY 52 48 86 NW3 30.17R  
SWANQUARTER N/A 48 N/A N/A NE1 30.15S  
 

 
 
NCZ095-097-098-100-101-201300-  
SOUTHERN COAST  
 
CITY SKY/WX TMP DP RH WIND PRES REMARKS
 
BEAUFORT PTCLDY 48 46 93 CALM 30.18R  
CEDAR ISLAND N/A 61 N/A N/A W1 30.21S  
JACKSONVILLE CLEAR 44 43 96 CALM 30.17R  
PINEY ISLAND MOSUNNY 58 44 60 CALM 30.18R  
WILMINGTON CLEAR 47 42 83 CALM 30.16R  
 

 
 
NCZ011>013-027>030-043-044-078>080-089-090>093-098-201300-  
COASTAL PLAIN  
 
CITY SKY/WX TMP DP RH WIND PRES REMARKS
 
AHOSKIE MOCLDY 37 36 96 CALM 30.19R  
CLINTON CLEAR 41 41 100 CALM 30.18R  
ELIZABETHTOWN CLEAR 44 42 91 CALM 30.17R  
GOLDSBORO CLEAR 41 40 98 CALM 30.16R  
GREENVILLE PTCLDY 43 43 100 CALM 30.19R  
HAVELOCK PTCLDY 44 42 93 CALM 30.19R  
KENANSVILLE CLEAR 41 41 100 CALM 30.18S  
KINSTON CLEAR 39 39 100 CALM 30.19R  
NEW BERN CLEAR 44 41 89 CALM 30.19S FOG  
RICHLANDS CLEAR 43 37 81 CALM 30.18S  
ROCKY MOUNT CLEAR 41 39 93 CALM 30.17S  
WASHINGTON PTCLDY 42 40 93 CALM 30.19S  
WHITEVILLE CLEAR 44 43 93 CALM 30.16S  
 

 
 
AMZ130-135-150-152-154-156-158-170-250-252-270-ANZ085-086-088-633-658-670-201300-  
MARINE OBSERVATIONS  
 
STATION/POSITION TIME TEMP WIND PRES WAVE SWELL
 
AIR SEA DIR/SP/G HT/PER HT/PER  
(UTC) (F) (DEG/KT/KT) (MB) (FT/S) (FT/S)  
CHESAPEAKE LIGHT 1200 61 190/ 5/ 5 1021.9  
64 E VA BEACH 1200 61 69 160/ 2/ 4 1020.9 3/12 3/12  
DUCK 1200 59 68 270/ 5/ 5 1020.8  
2 E DUCK 1200 N/A 3/13 2/13  
10 NE DUCK 1200 71 N/A 3/13 2/13  
OREGON INLET 1200 59 66 280/ 4/ 6 1021.6  
13E OREGON INLT 1200 73 N/A 4/11 2/11  
HATTERAS CG 1200 61 66 320/ 2/ 4 1022.2  
DIAMOND BUOY 1200 65 CALM / 4 1021.5 4/12 3/12  
17 S OCRACOKE 1100 VRB 4/ 4 1021.1  
CAPE LOOKOUT 1200 60 10/ 6/ 9 1021.5  
BEAUFORT LAB 1200 58 69 10/ 5/ 5 1021.1  
30 SE NEW RIVER 1200 66 76 210/ 4/ 6 1020.9 2/11 2/11  
5 SE WRIGHTSVLE 1200 63 73 140/ 4/ 6 N/A  
225 S CAPE HAT 1057 70 80 20/ 8/ 12 1020.3 4/ 9 3/ 9  
41 SE CHARLESTON 1200 71 79 70/ 4/ 6 1019.4 2/ 9 2/ 9  
 

 
 
CLICK HERE TO GO TO PREVIOUS BULLETINS.

The Nexlab NC Page Main Text Page